contact:dominique.lefevre@mio.osupytheas.fr, maurice.libes@osupytheas.fr
Project:EMSO Ligure-ouest http://www.emso-fr.org/EMSO-France
Sensor Aquadopp, line 04 Serial AQD8517 
DOI : "https://doi.org/10.17882/74513; https://doi.org/10.17882/83244" 
Title:EMSO Ligure Ouest : Data ligne ALBATROSS capteur AQUADOPP - deploiement 2021
Id,Date,Profondeur,Latitude,Longitude,X_East,Y_North,Z_Up,Amplitude_X,Amplitude_Y,Amplitude_Z,Batterie,SoundSpeed,Heading,Pitch,Roll,Pressure,Temperature,Speed,Direction
, , m, degrees North, degrees East, m.s-1, m.s-1,m.s-1, 1, 1, 1, Volt, m.s-1, degree, degree, degree, dbar, degree_C, m.s-1, degree
04,2022-02-21T21:30:00,1000.0,42.79,6.0312,-0.001,-0.042,0.014,62.0,65.0,61.0,12.4,1504.7,175.8,-0.5,-0.3,967.413,13.3,0.042,181.4
04,2022-02-21T22:00:00,1000.0,42.79,6.0312,-0.019,-0.04,0.002,63.0,65.0,62.0,12.4,1504.7,190.9,-0.5,-0.3,967.445,13.29,0.044,205.4
04,2022-02-21T22:30:00,1000.0,42.79,6.0312,-0.029,-0.035,0.011,66.0,66.0,62.0,12.3,1504.6,194.4,-0.5,-0.3,967.455,13.27,0.045,219.6
04,2022-02-21T23:00:00,1000.0,42.79,6.0312,-0.019,-0.046,0.009,64.0,66.0,63.0,12.4,1504.6,186.6,-0.5,-0.3,967.452,13.27,0.049,202.4
04,2022-02-21T23:30:00,1000.0,42.79,6.0312,-0.014,-0.038,-0.002,65.0,68.0,64.0,12.4,1504.6,182.7,-0.5,-0.3,967.421,13.27,0.04,200.2
04,2022-02-22T00:00:00,1000.0,42.79,6.0312,-0.006,-0.045,0.017,64.0,67.0,63.0,12.3,1504.6,185.9,-0.5,-0.3,967.408,13.27,0.045,187.6
04,2022-02-22T00:30:00,1000.0,42.79,6.0312,-0.004,-0.037,0.009,66.0,69.0,64.0,12.4,1504.6,172.4,-0.5,-0.3,967.419,13.27,0.037,186.2
04,2022-02-22T01:00:00,1000.0,42.79,6.0312,-0.009,-0.05,0.016,63.0,67.0,63.0,12.3,1504.6,185.6,-0.5,-0.3,967.41,13.27,0.05,190.2
04,2022-02-22T01:30:00,1000.0,42.79,6.0312,-0.016,-0.037,0.013,63.0,67.0,63.0,12.3,1504.7,189.7,-0.6,-0.3,967.378,13.28,0.04,203.4
04,2022-02-22T02:00:00,1000.0,42.79,6.0312,-0.009,-0.05,-0.01,64.0,66.0,62.0,12.4,1504.6,191.0,-0.6,-0.3,967.373,13.27,0.05,190.2
04,2022-02-22T02:30:00,1000.0,42.79,6.0312,-0.003,-0.037,0.005,66.0,66.0,63.0,12.4,1504.6,184.0,-0.5,-0.3,967.371,13.27,0.037,184.6
04,2022-02-22T03:00:00,1000.0,42.79,6.0312,-0.012,-0.033,0.003,64.0,66.0,63.0,12.3,1504.6,189.1,-0.6,-0.3,967.304,13.27,0.035,200.0
04,2022-02-22T03:30:00,1000.0,42.79,6.0312,-0.006,-0.043,0.002,62.0,66.0,63.0,12.4,1504.6,186.0,-0.5,-0.3,967.306,13.27,0.043,187.9
04,2022-02-22T04:00:00,1000.0,42.79,6.0312,0.0,-0.038,0.01,65.0,66.0,63.0,12.3,1504.6,186.0,-0.5,-0.3,967.302,13.27,0.038,180.0
04,2022-02-22T04:30:00,1000.0,42.79,6.0312,0.002,-0.042,-0.003,64.0,65.0,62.0,12.3,1504.6,185.3,-0.5,-0.3,967.313,13.27,0.042,177.3
04,2022-02-22T05:00:00,1000.0,42.79,6.0312,-0.003,-0.04,0.003,63.0,67.0,63.0,12.3,1504.6,178.2,-0.5,-0.3,967.297,13.27,0.04,184.3
04,2022-02-22T05:30:00,1000.0,42.79,6.0312,0.01,-0.039,0.0,62.0,65.0,63.0,12.4,1504.6,172.8,-0.5,-0.3,967.295,13.27,0.04,165.6
04,2022-02-22T06:00:00,1000.0,42.79,6.0312,0.001,-0.035,-0.005,64.0,66.0,62.0,12.4,1504.6,164.0,-0.5,-0.2,967.278,13.27,0.035,178.4
04,2022-02-22T06:30:00,1000.0,42.79,6.0312,0.008,-0.034,0.0,63.0,66.0,61.0,12.3,1504.6,169.6,-0.4,-0.3,967.328,13.27,0.034,166.8
04,2022-02-22T07:00:00,1000.0,42.79,6.0312,0.02,-0.033,-0.008,64.0,66.0,62.0,12.4,1504.6,143.7,-0.4,-0.3,967.295,13.27,0.038,148.8
04,2022-02-22T07:30:00,1000.0,42.79,6.0312,0.015,-0.038,-0.009,64.0,66.0,63.0,12.4,1504.7,153.7,-0.4,-0.3,967.347,13.28,0.04,158.5
04,2022-02-22T08:00:00,1000.0,42.79,6.0312,0.01,-0.039,0.002,63.0,66.0,62.0,12.4,1504.7,153.7,-0.5,-0.3,967.376,13.29,0.04,165.6
04,2022-02-22T08:30:00,1000.0,42.79,6.0312,0.007,-0.044,0.0,63.0,67.0,62.0,12.4,1504.7,157.4,-0.4,-0.3,967.379,13.29,0.044,171.0
04,2022-02-22T09:00:00,1000.0,42.79,6.0312,0.021,-0.05,-0.003,64.0,66.0,62.0,12.4,1504.7,155.2,-0.4,-0.3,967.427,13.29,0.054,157.2
04,2022-02-22T09:30:00,1000.0,42.79,6.0312,0.011,-0.048,-0.002,63.0,67.0,61.0,12.4,1504.7,151.8,-0.5,-0.3,967.473,13.29,0.049,167.1
04,2022-02-22T10:00:00,1000.0,42.79,6.0312,0.019,-0.036,0.012,65.0,68.0,62.0,12.3,1504.7,145.5,-0.5,-0.4,967.432,13.29,0.04,152.2
04,2022-02-22T10:30:00,1000.0,42.79,6.0312,0.018,-0.038,0.007,63.0,66.0,63.0,12.3,1504.7,154.1,-0.4,-0.3,967.435,13.3,0.042,154.7
04,2022-02-22T11:00:00,1000.0,42.79,6.0312,0.005,-0.033,-0.001,65.0,64.0,62.0,12.4,1504.7,165.7,-0.4,-0.4,967.456,13.29,0.033,171.4
04,2022-02-22T11:30:00,1000.0,42.79,6.0312,0.023,-0.028,-0.01,64.0,66.0,63.0,12.3,1504.7,134.2,-0.5,-0.4,967.409,13.29,0.036,140.6
04,2022-02-22T12:00:00,1000.0,42.79,6.0312,-0.008,-0.031,0.003,64.0,66.0,63.0,12.3,1504.7,172.2,-0.5,-0.3,967.436,13.29,0.032,194.5
04,2022-02-22T12:30:00,1000.0,42.79,6.0312,0.009,-0.012,0.013,66.0,65.0,64.0,12.4,1504.7,133.5,-0.5,-0.3,967.417,13.29,0.015,143.1
04,2022-02-22T13:00:00,1000.0,42.79,6.0312,0.007,-0.023,0.011,65.0,69.0,65.0,12.4,1504.7,152.8,-0.5,-0.4,967.436,13.29,0.024,163.1
04,2022-02-22T13:30:00,1000.0,42.79,6.0312,0.009,-0.019,0.001,66.0,65.0,64.0,12.4,1504.7,151.0,-0.5,-0.4,967.391,13.29,0.021,154.7
04,2022-02-22T14:00:00,1000.0,42.79,6.0312,0.014,-0.014,0.009,65.0,66.0,64.0,12.4,1504.7,153.4,-0.5,-0.4,967.383,13.29,0.019,135.0
04,2022-02-22T14:30:00,1000.0,42.79,6.0312,0.005,-0.029,-0.01,67.0,67.0,64.0,12.3,1504.7,150.2,-0.5,-0.3,967.367,13.28,0.029,170.2
04,2022-02-22T15:00:00,1000.0,42.79,6.0312,0.014,-0.016,-0.011,64.0,67.0,64.0,12.3,1504.6,158.6,-0.5,-0.3,967.328,13.27,0.021,138.8
04,2022-02-22T15:30:00,1000.0,42.79,6.0312,0.021,-0.019,-0.013,66.0,66.0,63.0,12.4,1504.7,159.6,-0.5,-0.3,967.312,13.28,0.028,132.1
04,2022-02-22T16:00:00,1000.0,42.79,6.0312,0.025,-0.022,0.013,65.0,68.0,64.0,12.4,1504.7,158.1,-0.4,-0.3,967.323,13.28,0.033,131.3
04,2022-02-22T16:30:00,1000.0,42.79,6.0312,0.034,-0.002,-0.011,66.0,66.0,64.0,12.3,1504.7,160.1,-0.4,-0.3,967.308,13.29,0.034,93.4
04,2022-02-22T17:00:00,1000.0,42.79,6.0312,0.033,-0.017,-0.018,67.0,67.0,64.0,12.4,1504.7,159.4,-0.4,-0.3,967.288,13.29,0.037,117.3
04,2022-02-22T17:30:00,1000.0,42.79,6.0312,0.036,-0.009,-0.017,65.0,69.0,63.0,12.4,1504.7,155.3,-0.4,-0.3,967.263,13.3,0.037,104.0
04,2022-02-22T18:00:00,1000.0,42.79,6.0312,0.024,-0.013,-0.016,65.0,66.0,62.0,12.4,1504.7,152.0,-0.4,-0.3,967.272,13.29,0.027,118.4
04,2022-02-22T18:30:00,1000.0,42.79,6.0312,0.025,-0.015,-0.007,64.0,66.0,64.0,12.4,1504.7,142.7,-0.4,-0.3,967.276,13.29,0.029,121.0
04,2022-02-22T19:00:00,1000.0,42.79,6.0312,0.027,-0.028,-0.013,64.0,67.0,64.0,12.4,1504.7,134.0,-0.4,-0.3,967.303,13.28,0.038,136.0
04,2022-02-22T19:30:00,1000.0,42.79,6.0312,0.025,-0.026,0.002,64.0,66.0,63.0,12.3,1504.7,134.2,-0.4,-0.3,967.312,13.29,0.036,136.1
04,2022-02-22T20:00:00,1000.0,42.79,6.0312,0.02,-0.014,0.001,68.0,66.0,63.0,12.4,1504.7,129.6,-0.3,-0.3,967.321,13.29,0.024,125.0
04,2022-02-22T20:30:00,1000.0,42.79,6.0312,0.026,-0.024,-0.012,64.0,65.0,63.0,12.4,1504.7,118.4,-0.4,-0.4,967.309,13.29,0.035,132.7
04,2022-02-22T21:00:00,1000.0,42.79,6.0312,0.012,-0.021,0.014,65.0,66.0,63.0,12.3,1504.7,80.3,-0.4,-0.4,967.371,13.28,0.024,150.3
